RH
100 100 100 100 100 100 100 100 100 100 100 100 99 98 97 94 96 100 100 100 100 100 100 94 81 72 63 56 53 52 52 51 45 38 36 36 36 36 37 37 31 22 20 19
100 100 100 100 100 100 100 100 100 100 100 94 97 99 100 98 98 95 94 100 100 100 100 100 100 100 96 87 78 70 64 60 56 52 45 39 33 32 34 39 39 38 32 24
100 100 100 100 100 100 100 100 100 100 100 100 100 97 100 100 100 100 100 100 100 100 100 100 100 100 98 92 88 84 77 67 60 54 50 47 42 37 33 32 31 35 35 32
96 96 94 90 90 94 96 96 95 94 92 88 86 78 91 100 100 100 100 100 100 100 100 100 100 99 92 88 88 89 88 85 75 64 57 53 48 45 42 36 31 28 27 30
95 91 88 84 83 81 79 83 77 71 71 72 79 87 86 96 100 100 100 100 100 100 100 97 94 93 91 88 83 82 80 80 80 78 73 66 60 57 55 51 44 37 32 30
81 82 86 90 91 88 91 98 100 98 97 87 96 92 76 80 77 84 94 98 98 99 98 93 92 92 90 89 86 86 88 89 89 89 89 86 82 83 83 79 75 66 58 45
74 68 64 55 51 53 52 49 52 71 89 100 100 97 97 98 99 96 96 96 99 100 100 100 100 100 100 100 100 100 99 98 99 100 100 100 100 97 89 81 77 74 67 56
48 49 45 38 37 37 36 38 42 44 44 44 46 54 86 100 100 98 96 97 94 96 100 100 100 100 100 100 100 97 94 94 94 95 96 100 100 100 97 93 92 96 98 84
46 42 41 46 56 55 52 57 62 58 58 52 52 49 51 82 99 95 95 99 100 99 99 99 100 99 96 96 100 100 98 98 100 100 99 93 92 98 91 80 78 72 66 67
54 56 47 52 58 62 72 70 67 68 63 49 50 51 57 56 61 93 100 100 100 100 100 98 91 89 92 94 94 96 95 94 92 99 98 96 94 86 78 75 69 58 52 51
64 61 73 79 77 78 83 82 83 91 82 80 75 70 63 64 72 73 77 75 77 86 86 79 70 74 82 84 80 73 66 62 59 60 56 56 53 55 55 54 48 35 26 27
68 76 85 91 94 92 90 97 100 98 94 100 93 73 78 91 86 85 75 73 76 64 58 60 66 68 64 57 58 59 57 51 48 46 43 45 44 46 40 37 34 34 27 25
83 96 100 100 100 100 98 100 100 100 100 100 96 83 97 86 80 81 80 71 64 60 63 68 67 64 64 61 55 51 49 45 44 44 38 35 36 34 32 31 30 26 23 22
100 100 100 100 100 100 100 100 100 100 100 100 100 100 100 84 71 69 65 61 61 60 66 63 62 60 50 42 40 39 39 35 33 31 29 29 28 27 24 22 20 20 19 18
100 100 99 99 100 100 100 100 100 100 100 86 79 75 91 92 73 71 68 60 57 55 55 53 51 46 44 44 41 38 38 34 30 26 24 23 22 20 19 17 14 10 8 6
100 92 64 34 31 30 32 41 49 56 72 63 57 63 70 66 67 65 69 72 72 63 53 50 48 46 43 41 36 31 27 25 22 20 17 14 12 11 9 7 6 5 5 5
28 24 28 34 49 40 34 53 53 62 68 73 74 72 84 81 82 91 92 84 81 75 65 59 51 42 35 29 24 20 17 15 13 10 8 7 6 6 5 6 5 5 4 4
23 29 40 38 38 38 58 66 86 96 98 95 94 95 92 93 91 98 98 82 70 60 48 38 30 24 20 17 14 11 10 8 6 6 5 5 5 5 5 5 5 5 5 5
53 69 69 62 62 57 69 72 75 74 80 92 92 87 88 85 81 83 62 51 41 30 23 19 17 14 10 8 6 6 6 6 5 5 5 5 5 5 5 5 5 5 5 5
71 74 75 74 65 57 74 86 84 79 84 89 85 78 64 50 41 40 29 24 21 18 13 10 8 7 6 6 5 5 5 5 4 4 5 5 5 5 5 5 5 5 5 5
72 70 69 74 73 78 80 68 63 62 51 51 46 38 33 33 28 24 20 15 11 9 8 7 7 6 5 5 4 4 4 4 4 5 5 5 5 5 4 4 4 4 4 5
75 80 85 88 88 76 66 54 40 33 34 30 29 27 22 18 14 11 12 13 12 8 6 6 5 5 5 4 4 5 5 4 5 5 5 4 3 3 3 4 4 4 4 4
87 91 86 71 57 43 38 31 31 33 28 22 18 15 11 11 12 14 14 12 8 7 6 6 6 6 5 5 5 6 5 4 4 4 3 3 3 3 4 4 5 5 4 4
71 59 47 43 42 42 33 28 22 18 16 13 12 12 13 14 14 13 12 10 9 8 6 6 6 6 6 6 6 5 4 4 5 4 3 3 3 4 4 5 5 5 4 4
43 44 46 43 32 26 18 18 15 14 13 14 16 15 14 14 16 14 14 11 9 8 6 6 6 6 6 6 5 4 5 5 5 4 3 3 4 5 5 5 4 5 4 5
39 34 28 23 20 18 15 13 14 16 16 15 15 15 14 13 15 15 16 14 11 9 8 7 6 6 6 6 5 5 5 5 5 4 4 4 4 4 4 4 4 5 5 5
Wind_Speed
64 63 62 63 63 66 70 72 73 73 74 75 74 72 76 76 74 75 75 76 78 80 82 84 84 83 83 82 80 80 78 78 76 75 75 75 74 74 75 76 77 78 80 81
67 69 70 71 72 74 75 77 78 79 80 80 79 77 81 81 80 82 83 83 85 86 88 89 89 88 88 89 89 88 87 86 87 86 84 83 82 83 83 83 84 86 87 86
77 77 79 80 82 83 85 85 87 87 87 86 85 82 84 85 85 86 86 89 91 93 95 96 95 95 96 95 95 94 94 94 93 92 92 92 91 91 91 91 92 93 94 95
86 86 87 88 90 90 90 91 93 93 93 93 93 89 84 86 89 91 92 93 96 98 100 100 101 101 101 102 101 101 100 99 99 98 98 99 99 99 100 100 100 100 100 101
86 87 88 88 88 90 90 91 92 94 94 92 88 92 79 86 90 94 95 98 100 103 104 105 105 104 104 104 104 103 103 103 103 103 103 103 103 104 106 107 107 108 108 108
81 80 80 83 86 89 91 93 95 96 97 97 95 99 86 89 90 93 95 98 100 102 104 105 106 106 107 106 106 106 107 108 108 109 110 111 111 112 113 115 116 117 118 119
67 71 74 73 71 75 75 77 88 95 96 100 102 103 94 95 98 100 102 104 105 107 108 109 110 110 110 110 111 111 112 113 114 114 116 118 119 121 123 124 125 126 128 129
69 72 70 72 78 84 82 85 89 92 87 83 93 100 100 102 104 106 109 110 111 112 114 115 115 116 116 117 117 118 119 120 121 122 123 125 127 128 131 132 134 135 137 138
73 73 79 83 87 88 87 90 96 101 97 96 92 89 96 102 107 110 113 115 116 118 119 120 121 122 123 124 125 126 127 127 128 130 132 134 137 138 141 142 145 147 147 149
81 84 82 87 90 92 98 101 105 109 107 109 98 98 94 94 98 106 114 117 119 121 123 125 127 128 130 131 133 134 135 137 137 139 141 143 148 149 150 152 157 157 156 157
87 90 91 95 98 102 105 107 107 109 111 113 109 100 100 98 101 104 110 110 111 118 126 129 131 133 135 137 139 141 140 138 137 138 140 141 142 147 149 150 152 154 154 152
94 98 100 102 105 107 109 107 111 115 114 115 117 106 104 108 110 111 111 113 114 112 115 121 125 129 130 130 131 133 135 134 135 135 138 138 141 143 146 151 155 152 153 156
100 105 109 112 114 115 115 115 117 118 119 115 119 113 112 115 117 115 113 112 113 116 117 118 120 122 124 126 126 126 127 128 131 135 139 143 145 147 148 152 154 152 146 144
108 113 117 120 123 123 122 121 121 122 120 121 118 122 123 123 118 116 114 114 114 112 112 113 114 116 120 122 124 124 126 128 131 134 137 139 141 141 141 142 144 146 146 146
119 123 128 132 133 129 124 120 117 118 120 125 117 120 118 121 118 114 113 110 108 108 110 112 115 117 119 122 125 127 129 131 132 134 136 137 139 142 144 143 142 138 133 127
128 132 124 115 110 108 102 104 105 108 111 110 109 104 108 107 105 104 104 105 107 110 112 115 117 119 123 126 128 131 134 137 140 140 140 138 136 134 130 126 122 118 114 111
102 96 95 87 81 81 78 77 82 86 89 94 96 96 97 98 99 102 105 109 111 114 118 121 124 128 131 134 137 138 139 139 136 132 128 123 120 117 113 111 109 107 104 101
87 80 75 75 76 75 73 75 77 80 83 88 90 93 95 97 100 104 110 115 119 123 126 130 134 136 137 137 134 130 128 126 121 118 113 110 107 106 104 102 100 98 95 93
72 70 74 75 77 75 73 76 80 82 82 86 91 95 99 103 107 113 121 124 129 132 134 135 135 132 129 124 118 114 112 108 106 104 102 101 98 96 94 92 90 88 87 86
70 73 75 78 80 78 73 77 81 84 82 92 97 102 107 112 115 120 126 130 132 132 128 123 117 114 110 106 102 99 97 94 94 91 91 91 90 87 85 84 82 81 79 79
70 72 73 75 79 79 83 87 90 94 97 100 105 110 112 115 121 121 122 121 115 111 109 106 101 98 96 93 89 88 87 86 84 83 82 82 81 80 78 76 74 74 73 73
71 75 77 82 88 92 94 98 102 103 105 109 109 112 111 111 109 103 100 98 99 97 95 93 88 87 86 83 80 80 80 78 76 76 76 76 75 72 69 68 69 68 68 67
80 83 86 91 96 101 102 104 104 105 106 107 105 104 99 95 91 90 89 89 87 86 84 82 80 80 80 78 75 74 74 71 68 70 71 69 66 63 60 60 62 62 61 61
88 92 94 98 103 105 108 106 104 102 99 97 92 89 86 82 83 80 81 81 79 78 76 73 73 73 74 71 71 68 67 64 64 64 64 61 58 54 52 53 55 56 56 56
95 98 100 104 104 104 104 99 96 93 88 84 83 82 80 76 78 76 78 76 74 72 69 67 66 67 65 64 64 61 59 60 61 60 57 53 50 49 50 51 51 51 52 51
99 100 99 99 99 98 95 91 83 82 81 80 78 79 78 73 72 73 73 73 71 68 65 64 63 62 59 58 58 54 55 55 55 54 51 49 48 47 47 48 47 47 47 46
Wind_Direction
264 266 267 269 270 271 271 271 273 273 274 274 273 275 275 275 276 276 276 275 273 272 273 274 274 274 274 273 271 271 271 271 268 266 264 262 262 261 261 261 259 256 258 254
266 269 270 271 271 272 272 273 273 274 274 274 275 276 275 276 275 275 275 274 274 274 274 274 274 273 273 273 273 272 272 271 270 270 269 265 263 261 261 260 259 258 257 255
271 271 271 272 273 273 272 273 273 272 273 274 274 274 277 277 274 273 273 272 271 272 272 272 273 273 272 273 272 272 271 271 271 271 270 270 268 267 264 261 259 259 258 257
272 273 273 274 274 275 275 275 274 274 273 273 273 272 271 271 273 273 272 270 270 269 270 271 271 271 271 272 273 273 273 273 272 271 271 270 269 268 267 266 264 262 260 259
275 275 277 278 280 280 279 278 279 278 277 275 276 274 271 271 271 270 271 270 269 269 270 270 270 271 271 272 272 272 272 272 273 273 272 271 270 269 268 268 267 266 265 263
273 275 277 278 278 278 279 279 278 278 277 277 277 277 277 275 274 272 271 270 270 270 270 271 271 272 272 273 273 273 273 273 273 273 272 272 272 271 270 269 268 267 267 265
270 273 273 275 276 278 280 284 281 277 276 277 274 274 277 274 273 272 272 271 271 270 270 270 270 272 272 273 273 273 273 273 273 272 272 270 270 269 269 269 268 267 267 266
271 276 278 282 281 280 284 284 286 285 280 284 282 277 275 273 273 273 272 271 271 270 270 270 271 271 271 271 271 271 271 271 271 271 271 270 269 269 269 269 269 268 268 267
275 281 279 284 288 289 290 290 290 292 289 286 285 286 278 275 275 273 271 270 269 269 269 269 270 271 271 271 271 271 271 271 271 270 270 270 269 269 269 269 268 268 269 269
283 285 287 287 288 289 290 291 292 292 291 290 289 286 283 277 276 275 271 270 270 270 270 271 272 272 271 271 271 271 271 271 271 271 270 271 270 271 271 271 270 270 271 271
283 286 288 288 289 290 291 292 290 288 289 290 288 286 284 282 279 278 273 273 274 274 275 276 275 273 273 273 273 273 273 273 273 272 272 271 270 270 268 268 269 272 273 274
286 288 289 289 290 290 290 289 287 287 287 286 286 287 284 281 279 279 279 276 276 276 276 275 275 274 274 275 276 276 276 274 271 270 269 267 268 268 270 270 272 273 273 273
288 290 290 290 290 289 288 287 286 284 283 284 283 285 282 283 282 281 280 280 279 278 279 279 278 277 277 277 277 276 275 274 273 273 273 270 270 271 272 271 272 274 275 274
287 287 287 287 286 286 285 283 283 281 281 280 282 281 283 283 282 282 281 282 281 280 280 278 276 276 276 276 277 277 277 276 276 275 274 275 275 275 276 276 276 276 277 276
286 286 286 285 285 283 282 281 279 279 279 279 280 281 281 282 283 283 283 283 282 281 281 281 280 280 280 280 279 279 279 278 278 278 277 277 278 279 279 279 278 278 277 275
286 287 284 281 281 280 281 281 281 280 280 281 280 281 281 281 282 283 284 285 285 284 282 282 280 280 280 280 280 280 280 281 281 282 282 282 281 280 280 279 278 277 276 274
283 282 281 281 282 280 281 280 280 281 280 283 284 285 286 285 285 286 285 284 284 283 282 282 282 282 282 283 284 284 284 284 284 284 284 283 282 281 280 279 278 277 276 275
283 282 279 279 279 279 279 279 280 280 281 281 283 284 284 284 284 285 283 281 281 282 282 283 284 285 286 286 286 286 286 285 284 284 283 282 281 280 279 279 278 277 275 273
282 281 281 282 281 281 282 281 282 281 282 285 284 285 284 284 283 284 283 284 284 285 286 287 287 287 287 287 287 286 285 284 284 283 282 281 280 279 279 278 277 275 274 272
282 283 284 286 285 287 287 284 284 283 284 283 284 284 284 284 285 285 285 287 288 289 289 289 288 288 288 287 287 286 285 284 282 282 282 281 281 280 279 277 276 275 274 272
285 287 289 289 289 288 287 286 286 286 285 286 285 285 287 287 287 286 287 288 289 289 290 290 289 289 288 288 288 287 285 283 284 284 282 281 280 280 279 278 277 275 273 270
288 289 289 290 290 289 289 289 287 289 289 288 289 288 288 288 288 290 290 291 291 292 292 291 291 291 289 289 289 288 287 288 287 284 282 280 279 278 277 276 274 272 271 269
290 290 290 289 289 288 288 288 290 290 290 290 291 291 291 292 293 293 293 293 294 294 293 293 293 292 291 292 292 290 289 288 287 283 281 279 280 280 278 274 272 271 270 269
289 288 289 289 290 292 291 292 292 292 293 293 294 294 293 293 293 295 296 296 296 295 294 294 292 292 292 293 291 290 290 290 286 284 283 283 284 282 278 274 270 269 268 267
289 290 291 292 292 292 292 294 296 296 295 295 294 293 295 296 297 299 298 298 297 296 297 297 295 294 294 294 293 293 291 289 287 286 287 287 283 278 276 272 269 268 267 265
291 291 291 293 294 295 295 295 297 296 296 296 296 297 298 298 298 298 298 297 298 299 300 298 298 297 298 296 295 295 292 289 288 289 288 284 278 275 273 272 271 269 267 265